Weather History for Morganton, NC

Change the Weather History Date:

Wednesday, December 11, 2013

  Actual Average (KHKY) Record (KHKY)
Temperature  
Mean Temperature 34 °F -  
Max Temperature 50 °F 51 °F 77 °F (2007)
Min Temperature 19 °F 32 °F 10 °F (1957)
Degree Days  
Heating Degree Days 30    
Moisture  
Dew Point 22 °F    
Average Humidity 69    
Maximum Humidity 96    
Minimum Humidity 24    
Precipitation  
Precipitation 0.00 in - - ()
Sea Level Pressure  
Sea Level Pressure 30.37 in    
Wind  
Wind Speed 1 mph (WSW)    
Max Wind Speed 8 mph    
Max Gust Speed -    
Visibility 10 miles    
Events      
Averages and records for this station are not official NWS values.
T = Trace of Precipitation, MM = Missing Value Source: NWS Daily Summary

Daily Weather History Graph

Daily Weather History Graph

Search for Another Location

Airport:

Trip Planner

Search our weather history database for the weather conditions in past years. The results will help you decide how hot, cold, wet, or windy it might be!

Date:

Astronomy

Dec. 11, 2013 Rise Set
Actual Time 7:26 AM EST 5:13 PM EST
Civil Twilight 6:58 AM EST 5:41 PM EST
Nautical Twilight 6:26 AM EST 6:13 PM EST
Astronomical Twilight 5:55 AM EST 6:44 PM EST
Moon 1:38 PM EST (12/11) 1:55 AM EST (12/11)
Length of Visible Light 10h 43m
Length of Day
9h 46m
Waxing Gibbous, 71% of the Moon is Illuminated
Dec 11
Waxing Gibbous
Dec 17
Full
Dec 25
Last Quarter
Jan 1
New
Jan 7
First Quarter

Hourly Weather History & Observations

Time (EST) Temp. Windchill Dew Point Humidity Pressure Visibility Wind Dir Wind Speed Gust Speed Precip Events Conditions
12:15 AM 25.9 °F - 21.6 °F 84% 30.34 in 10.0 mi Calm Calm - N/A   Clear
12:35 AM 24.6 °F 18.8 °F 22.8 °F 93% 30.34 in 10.0 mi SSE 4.6 mph - N/A   Clear
12:55 AM 24.1 °F - 22.3 °F 93% 30.34 in 10.0 mi Calm Calm - N/A   Clear
1:15 AM 23.7 °F - 22.6 °F 96% 30.34 in 10.0 mi Calm Calm - N/A   Clear
1:19 AM 24.8 °F - 23.0 °F 93% 30.34 in 10.0 mi Calm Calm - N/A   Clear
1:35 AM 23.2 °F - 21.9 °F 95% 30.34 in 10.0 mi Calm Calm - N/A   Clear
1:55 AM 23.0 °F - 21.0 °F 92% 30.35 in 10.0 mi Calm Calm - N/A   Clear
2:15 AM 22.5 °F - 21.0 °F 94% 30.34 in 10.0 mi Calm Calm - N/A   Clear
2:35 AM 23.4 °F - 21.4 °F 92% 30.36 in 10.0 mi Calm Calm - N/A   Clear
2:55 AM 21.9 °F - 20.5 °F 94% 30.37 in 10.0 mi Calm Calm - N/A   Clear
3:15 AM 21.2 °F - 20.1 °F 96% 30.37 in 10.0 mi Calm Calm - N/A   Clear
3:35 AM 21.2 °F - 20.3 °F 96% 30.38 in 10.0 mi Calm Calm - N/A   Clear
3:55 AM 21.0 °F - 20.1 °F 96% 30.38 in 10.0 mi Calm Calm - N/A   Clear
4:15 AM 21.2 °F - 20.3 °F 96% 30.38 in 10.0 mi Calm Calm - N/A   Clear
4:35 AM 21.7 °F 17.0 °F 20.8 °F 96% 30.39 in 10.0 mi SW 3.5 mph - N/A   Clear
4:55 AM 20.3 °F - 19.4 °F 96% 30.39 in 10.0 mi Calm Calm - N/A   Clear
5:15 AM 19.9 °F - 18.7 °F 95% 30.39 in 10.0 mi Calm Calm - N/A   Clear
5:35 AM 19.9 °F - 18.5 °F 94% 30.39 in 10.0 mi Calm Calm - N/A   Clear
5:55 AM 19.8 °F - 18.3 °F 94% 30.39 in 10.0 mi Calm Calm - N/A   Clear
6:15 AM 20.1 °F - 18.9 °F 95% 30.39 in 10.0 mi Calm Calm - N/A   Clear
6:35 AM 20.3 °F 15.4 °F 18.9 °F 94% 30.40 in 10.0 mi North 3.5 mph - N/A   Clear
6:55 AM 19.6 °F - 18.3 °F 95% 30.41 in 10.0 mi Calm Calm - N/A   Clear
7:15 AM 19.9 °F - 18.9 °F 96% 30.41 in 10.0 mi Calm Calm - N/A   Clear
7:35 AM 19.9 °F 14.9 °F 18.9 °F 96% 30.42 in 10.0 mi North 3.5 mph - N/A   Clear
7:55 AM 20.1 °F - 18.7 °F 94% 30.43 in 10.0 mi Calm Calm - N/A   Clear
8:15 AM 23.2 °F - 21.9 °F 95% 30.43 in 10.0 mi Calm Calm - N/A   Clear
8:35 AM 26.4 °F - 24.1 °F 91% 30.45 in 10.0 mi Calm Calm - N/A   Clear
8:55 AM 28.6 °F - 24.8 °F 86% 30.45 in 10.0 mi Calm Calm - N/A   Clear
9:15 AM 31.5 °F - 26.2 °F 81% 30.46 in 10.0 mi Calm Calm - N/A   Clear
9:35 AM 33.6 °F - 21.4 °F 61% 30.45 in 10.0 mi Calm Calm - N/A   Clear
9:55 AM 34.0 °F - 20.7 °F 58% 30.46 in 10.0 mi Calm Calm - N/A   Clear
10:15 AM 35.1 °F 32.2 °F 21.9 °F 59% 30.46 in 10.0 mi South 3.5 mph - N/A   Clear
10:35 AM 36.3 °F 33.7 °F 21.6 °F 55% 30.46 in 10.0 mi South 3.5 mph - N/A   Clear
10:55 AM 38.3 °F - 21.6 °F 51% 30.45 in 10.0 mi Calm Calm - N/A   Clear
11:15 AM 39.2 °F - 23.5 °F 53% 30.44 in 10.0 mi Calm Calm - N/A   Clear
11:35 AM 40.5 °F - 22.8 °F 49% 30.43 in 10.0 mi Calm Calm - N/A   Clear
11:55 AM 41.4 °F 39.4 °F 24.1 °F 50% 30.42 in 10.0 mi WNW 3.5 mph - N/A   Clear
12:15 PM 43.0 °F 41.3 °F 23.2 °F 46% 30.41 in 10.0 mi NW 3.5 mph - N/A   Clear
12:35 PM 44.1 °F - 22.1 °F 42% 30.39 in 10.0 mi Calm Calm - N/A   Clear
12:55 PM 46.0 °F 44.8 °F 18.5 °F 33% 30.38 in 10.0 mi SW 3.5 mph - N/A   Clear
1:15 PM 47.3 °F - 17.4 °F 30% 30.36 in 10.0 mi Calm Calm - N/A   Clear
1:35 PM 48.6 °F - 18.1 °F 30% 30.35 in 10.0 mi SW 3.5 mph - N/A   Clear
1:55 PM 48.7 °F - 16.2 °F 27% 30.34 in 10.0 mi SW 4.6 mph - N/A   Clear
2:15 PM 49.5 °F - 15.4 °F 26% 30.34 in 10.0 mi SSW 3.5 mph - N/A   Clear
2:35 PM 50.0 °F - 14.4 °F 24% 30.33 in 10.0 mi SSW 6.9 mph - N/A   Clear
2:55 PM 50.7 °F - 15.1 °F 24% 30.32 in 10.0 mi SSW 5.8 mph - N/A   Clear
3:15 PM 50.9 °F - 15.3 °F 24% 30.32 in 10.0 mi Calm Calm - N/A   Clear
3:35 PM 50.9 °F - 16.3 °F 25% 30.32 in 10.0 mi SW 6.9 mph - N/A   Clear
3:55 PM 50.9 °F - 16.2 °F 25% 30.32 in 10.0 mi SW 4.6 mph - N/A   Clear
4:15 PM 50.5 °F - 18.0 °F 28% 30.32 in 10.0 mi SSW 3.5 mph - N/A   Clear
4:35 PM 49.6 °F - 20.1 °F 31% 30.32 in 10.0 mi SW 3.5 mph - N/A   Clear
4:55 PM 48.2 °F - 21.9 °F 36% 30.32 in 10.0 mi WSW 3.5 mph - N/A   Clear
5:15 PM 46.4 °F - 23.0 °F 40% 30.32 in 10.0 mi Calm Calm - N/A   Clear
5:35 PM 40.6 °F - 29.3 °F 64% 30.32 in 10.0 mi Calm Calm - N/A   Clear
5:55 PM 36.7 °F - 31.1 °F 80% 30.32 in 10.0 mi Calm Calm - N/A   Clear
6:15 PM 35.8 °F - 31.3 °F 84% 30.32 in 10.0 mi Calm Calm - N/A   Clear
6:35 PM 34.3 °F - 30.2 °F 85% 30.32 in 10.0 mi Calm Calm - N/A   Clear
6:55 PM 34.9 °F - 30.4 °F 84% 30.33 in 10.0 mi Calm Calm - N/A   Clear
7:15 PM 34.5 °F - 30.6 °F 85% 30.33 in 10.0 mi Calm Calm - N/A   Clear
7:35 PM 33.3 °F - 29.5 °F 86% 30.33 in 10.0 mi Calm Calm - N/A   Clear
7:55 PM 32.0 °F - 28.6 °F 87% 30.33 in 10.0 mi Calm Calm - N/A   Clear
8:15 PM 30.4 °F - 27.5 °F 89% 30.34 in 10.0 mi Calm Calm - N/A   Clear
8:35 PM 30.6 °F - 27.5 °F 88% 30.34 in 10.0 mi Calm Calm - N/A   Clear
8:55 PM 28.9 °F - 26.8 °F 92% 30.34 in 10.0 mi Calm Calm - N/A   Clear
9:15 PM 30.6 °F - 27.5 °F 88% 30.34 in 10.0 mi Calm Calm - N/A   Clear
9:35 PM 32.4 °F 26.9 °F 26.1 °F 78% 30.34 in 10.0 mi West 5.8 mph - N/A   Clear
9:55 PM 29.5 °F - 25.7 °F 86% 30.34 in 10.0 mi Calm Calm - N/A   Clear
10:15 PM 37.4 °F 34.9 °F 20.1 °F 50% 30.33 in 10.0 mi West 3.5 mph - N/A   Clear
10:35 PM 37.8 °F 35.3 °F 18.7 °F 46% 30.33 in 10.0 mi West 3.5 mph - N/A   Clear
10:55 PM 41.7 °F 36.7 °F 15.6 °F 35% 30.33 in 10.0 mi WSW 8.1 mph - N/A   Clear
11:15 PM 41.0 °F 39.0 °F 15.4 °F 36% 30.32 in 10.0 mi WSW 3.5 mph - N/A   Clear
11:35 PM 42.1 °F 38.4 °F 15.3 °F 34% 30.32 in 10.0 mi WNW 5.8 mph - N/A   Clear
11:55 PM 40.3 °F 35.5 °F 17.1 °F 39% 30.32 in 10.0 mi WNW 6.9 mph - N/A   Clear